SCP
1 0 0 0 0 1 1 1 1 1 1 1 1 1 1 0 0 0 0 1 1 0 0 0 0 1 1 1 0 0 0 0 0 0 0 0 0 0 0 0 0 0 0
1 1 0 0 0 1 1 1 1 1 1 1 1 1 1 1 0 0 1 1 1 0 0 0 1 1 1 1 0 0 0 0 0 0 0 0 0 0 0 0 0 0 0
1 1 0 0 1 1 1 1 1 1 1 1 1 1 1 1 1 1 1 1 1 0 0 0 1 1 1 1 1 0 0 0 0 0 0 0 0 0 0 0 0 0 0
1 1 1 1 1 1 1 1 1 1 1 1 1 1 1 1 0 0 1 1 1 0 0 0 1 1 1 1 0 0 0 0 0 0 0 0 0 0 0 0 0 0 0
1 1 1 1 1 1 1 1 1 1 1 1 1 1 0 0 0 0 0 0 0 0 0 1 1 1 1 0 0 0 0 0 0 0 0 0 0 0 0 0 0 0 0
1 1 1 1 1 1 1 1 1 1 1 1 1 1 1 0 0 0 0 0 0 1 1 1 1 1 1 0 0 0 0 0 0 0 0 0 0 0 0 0 0 0 0
1 1 1 1 1 1 1 1 1 1 1 1 1 1 1 1 0 0 0 0 0 1 1 1 1 1 1 0 0 0 0 0 0 0 0 0 0 0 0 0 0 0 0
1 1 1 1 1 1 1 1 1 1 1 1 1 1 1 1 0 0 0 0 0 0 1 1 1 1 1 1 0 0 0 0 0 0 0 0 0 0 0 0 0 0 0
1 1 1 1 1 1 1 1 1 1 1 1 1 1 1 1 0 0 0 0 1 1 1 1 1 1 1 1 1 1 1 1 1 0 0 0 0 0 0 0 0 0 0
1 1 1 1 1 1 1 1 1 1 1 1 1 1 1 1 1 1 1 1 1 1 1 1 1 1 1 1 1 1 1 1 1 1 1 1 0 0 1 1 1 0 0
1 1 1 1 1 1 1 1 1 1 1 1 1 1 1 1 1 1 1 1 1 1 1 1 1 1 1 1 1 1 1 1 1 1 1 1 1 1 1 1 0 0 0
1 1 1 1 1 1 1 1 1 1 1 1 1 1 1 1 1 1 1 1 1 1 1 1 1 1 1 1 1 1 1 1 1 1 1 1 1 1 1 1 0 0 0
1 1 1 1 1 1 1 1 1 1 1 1 1 1 1 1 1 1 1 1 1 1 1 1 1 1 1 1 1 1 1 1 1 1 1 1 1 1 1 1 0 0 0
1 1 1 1 1 1 1 1 1 1 1 1 1 1 1 1 1 1 1 1 1 1 1 1 1 1 1 1 1 1 1 1 1 1 1 1 1 1 1 1 0 0 0
1 1 1 1 1 1 1 1 1 1 1 1 1 1 1 1 1 1 2 2 2 1 1 2 2 2 1 1 1 1 1 1 1 1 1 1 1 1 0 0 0 0 0
1 1 1 1 1 1 2 2 2 2 1 1 1 2 2 2 2 2 2 2 2 2 2 2 2 2 1 1 1 1 1 1 1 1 1 1 0 0 0 0 0 0 0
1 1 1 1 1 1 1 2 2 1 1 1 2 2 2 2 2 2 2 2 2 2 2 2 2 1 1 1 0 0 1 1 1 1 1 1 1 0 0 0 0 0 0
1 1 1 1 1 1 1 1 1 1 1 1 1 2 2 2 2 2 2 2 2 2 2 2 1 1 1 0 0 0 1 1 1 1 1 1 1 0 0 0 0 0 0
1 1 1 1 1 1 1 1 1 1 1 1 1 1 1 1 2 2 2 2 2 2 1 1 1 1 1 0 0 0 1 1 1 1 1 1 1 0 0 0 0 1 1
1 1 1 1 1 1 1 1 1 1 1 1 1 1 1 1 1 1 2 2 2 1 1 1 1 1 1 1 0 0 1 1 1 1 1 0 0 0 0 0 0 0 0
1 1 1 1 1 1 1 1 1 1 1 2 1 1 1 1 1 1 2 2 1 1 1 1 1 1 1 0 0 0 0 1 0 0 0 0 0 0 0 0 0 0 0
0 0 1 1 1 1 1 1 1 1 1 1 1 1 1 1 1 1 1 1 1 1 1 1 1 1 1 0 0 0 0 0 0 0 0 0 0 0 0 0 0 0 0
0 0 0 1 1 1 1 1 1 1 1 1 1 1 1 1 1 1 1 1 1 1 1 1 1 1 1 1 0 0 0 0 0 0 0 0 0 0 0 0 0 0 0
0 0 1 1 1 1 1 1 1 1 1 1 1 1 1 1 1 1 1 1 1 1 1 1 1 1 1 1 0 0 0 0 0 0 0 0 0 0 0 0 0 0 0
0 1 1 1 1 1 1 1 1 1 1 1 1 1 1 1 1 1 1 1 1 1 1 1 1 1 0 0 0 0 0 0 0 0 0 0 0 0 0 0 0 0 0
1 1 1 1 1 1 1 1 1 1 1 1 1 1 1 1 1 1 1 1 0 0 0 0 0 0 0 0 0 0 0 0 0 0 0 0 0 0 0 0 0 0 0
Wind_Speed
10 10 8 8 8 7 7 5 4 3 2 2 2 2 2 1 1 2 2 3 2 2 2 1 1 1 1 2 2 1 2 2 1 1 1 2 3 3 2 2 2 2 4
10 10 9 8 8 7 7 6 5 4 2 1 1 1 1 2 2 2 2 3 2 2 2 1 1 1 1 0 1 1 1 1 1 1 1 1 1 1 3 2 2 2 1
12 12 10 9 8 8 7 6 5 4 3 2 2 1 1 1 1 2 2 2 2 2 1 1 1 1 1 1 1 1 2 2 1 1 1 1 1 1 1 2 2 2 1
11 11 11 10 8 8 8 7 6 4 3 2 2 2 2 1 1 1 2 2 2 2 2 1 1 1 1 1 1 1 1 2 2 1 1 1 1 1 1 1 0 1 1
11 11 11 10 9 9 8 8 6 5 4 3 2 1 1 1 1 1 1 2 2 2 2 2 1 1 1 0 0 0 0 1 2 1 1 1 1 2 1 1 1 0 1
11 11 11 10 9 9 9 9 7 6 5 4 3 2 1 1 0 1 1 1 1 1 1 1 1 1 1 1 1 1 1 1 2 2 1 1 1 1 1 1 1 1 1
11 11 11 11 9 9 8 9 8 7 6 5 3 2 2 1 1 1 1 1 1 1 1 1 1 1 1 1 1 1 1 1 2 2 1 1 1 1 1 1 1 1 1
9 10 11 10 9 9 8 8 8 7 6 4 3 2 2 2 1 1 1 1 1 0 1 1 1 1 1 1 1 1 1 1 1 1 1 1 1 1 1 1 1 1 1
9 9 10 9 9 9 8 8 8 7 6 5 4 3 2 2 1 1 1 1 1 1 1 1 1 1 1 1 1 1 1 0 1 1 1 1 1 1 2 1 1 1 1
7 7 8 8 7 7 7 7 7 7 6 5 5 4 3 2 1 1 0 1 0 0 0 1 1 1 1 1 1 1 1 1 1 1 1 1 1 1 2 1 1 1 2
6 6 6 6 7 8 7 7 6 7 6 6 4 4 4 4 3 2 2 1 1 1 1 1 1 1 1 1 1 1 1 1 1 1 1 1 2 2 2 1 1 1 0
5 5 6 5 5 6 6 6 6 6 6 6 5 4 3 4 4 4 3 3 2 2 1 1 1 2 1 1 1 1 1 1 1 1 1 1 1 2 2 2 2 1 1
4 5 5 4 4 4 5 5 6 6 6 6 5 5 4 4 4 4 4 3 2 2 2 2 2 2 2 1 1 1 1 1 1 1 1 0 1 1 1 2 2 2 1
5 5 5 4 3 3 3 4 3 4 5 5 5 5 4 4 4 3 4 4 3 3 3 3 2 2 2 1 1 1 1 1 1 1 1 1 1 1 2 1 2 2 2
5 6 4 3 3 3 3 3 3 3 3 3 4 4 4 3 3 3 3 3 3 3 2 2 3 3 3 1 1 1 2 1 1 1 1 1 1 0 1 2 1 2 2
4 5 4 3 3 2 2 2 2 3 3 3 3 3 3 3 3 3 3 3 3 2 2 2 2 2 1 1 1 1 2 2 2 2 1 2 2 1 1 1 2 2 2
4 4 3 3 2 2 1 0 2 2 3 3 3 3 3 3 3 4 3 2 2 2 2 2 2 2 2 2 1 1 2 3 2 1 1 2 0 1 1 2 3 3 4
5 4 2 2 2 2 1 0 1 1 2 2 2 3 3 3 3 3 3 3 3 2 2 3 3 2 2 3 2 2 3 3 2 2 2 1 1 1 2 3 2 2 2
4 3 3 3 2 1 1 1 1 1 1 1 2 2 2 2 3 3 3 3 3 3 3 3 3 2 3 3 3 2 2 2 2 2 1 1 1 1 2 2 2 2 2
4 3 3 3 3 3 2 2 2 2 1 1 1 1 1 2 2 2 2 2 2 3 3 3 3 3 3 4 4 3 2 2 2 1 1 1 1 1 1 2 2 3 3
4 4 4 3 3 3 3 3 3 2 3 3 2 1 1 2 2 2 2 2 2 3 3 3 3 3 3 5 5 4 2 2 2 1 1 1 2 2 2 2 3 4 4
3 3 3 3 3 3 3 3 2 3 2 2 2 1 1 3 2 2 2 3 3 3 3 3 3 3 3 5 5 6 4 3 3 2 1 0 1 3 4 3 4 5 5
2 2 2 2 2 2 2 1 1 1 1 1 1 1 2 1 2 2 2 3 3 4 3 3 3 3 2 3 4 5 5 4 3 2 2 3 4 3 4 5 5 4 3
1 0 0 0 1 1 1 1 1 1 1 1 1 1 2 2 2 1 2 2 2 3 3 3 2 2 2 2 2 3 3 4 3 3 2 3 4 4 4 3 3 3 3
0 0 0 1 1 1 0 1 1 1 1 1 2 2 2 2 2 1 1 1 0 1 2 1 1 1 0 0 0 1 1 1 1 1 2 2 2 2 2 2 2 2 1
1 1 1 1 1 1 1 1 0 0 1 2 2 3 3 2 2 2 1 1 1 2 1 1 1 0 1 2 1 0 1 1 0 1 2 2 2 3 2 2 1 1 1
Wind_Direction
157 151 150 148 142 135 133 132 137 139 146 155 167 173 171 180 167 163 164 162 187 201 212 232 175 196 175 198 191 215 216 226 243 265 274 253 221 203 198 209 217 210 200
156 153 156 157 151 145 144 142 145 140 150 150 157 177 162 179 178 162 147 157 178 212 199 203 204 172 182 228 240 253 257 255 209 227 265 276 265 229 204 192 189 207 216
164 159 162 166 162 153 149 147 144 142 150 166 166 163 149 195 174 150 149 162 178 197 246 175 224 203 182 195 219 244 248 258 247 208 229 258 279 297 253 185 164 165 193
165 165 167 168 163 158 152 142 145 145 155 178 179 190 183 179 195 171 144 156 180 191 188 178 211 240 235 220 220 200 275 261 266 262 244 237 251 284 309 291 155 162 163
163 162 164 166 166 163 158 152 147 152 158 174 169 204 210 193 188 173 150 170 174 184 182 170 191 218 226 266 282 22 292 266 273 280 278 270 255 252 238 284 307 304 179
159 158 158 161 165 165 163 154 153 158 164 172 169 190 205 217 209 202 178 200 188 174 169 161 179 208 229 254 225 263 241 265 285 291 298 273 263 270 251 250 279 271 230
155 158 160 165 166 163 158 153 157 163 167 170 170 181 193 193 224 247 233 248 229 171 166 169 165 220 241 264 272 211 254 254 269 272 285 296 279 292 304 295 285 281 272
156 164 165 166 166 163 157 153 151 157 161 162 164 171 175 201 212 239 254 229 241 48 100 143 157 200 239 252 240 247 239 249 266 276 280 287 277 276 265 243 263 298 289
159 160 160 162 165 164 158 156 150 151 158 165 168 177 175 195 209 214 205 240 221 160 114 129 169 199 230 275 275 243 266 242 245 274 280 273 276 255 260 257 222 224 258
152 151 152 155 155 158 156 153 149 154 162 172 185 179 178 191 186 238 188 164 246 23 60 174 186 200 210 216 222 251 258 234 249 234 260 283 285 283 276 269 264 243 233
146 147 149 153 153 154 158 159 159 161 171 177 178 178 179 186 185 200 208 194 204 200 222 237 206 205 200 201 218 228 210 201 252 286 264 265 280 299 298 307 295 288 271
127 125 130 137 147 156 160 161 164 172 177 174 181 186 183 191 197 202 201 201 199 196 213 225 213 212 192 212 228 236 241 254 241 262 282 305 318 317 315 309 299 293 266
108 109 111 124 139 151 151 162 167 177 179 175 184 192 199 207 209 199 194 194 198 200 209 216 213 217 207 215 226 233 243 263 275 274 269 241 281 295 299 295 300 299 302
104 102 100 119 135 137 137 155 163 179 181 179 192 196 202 203 211 210 194 191 200 207 213 220 216 206 203 211 231 259 237 258 285 272 255 260 243 297 301 294 306 309 316
93 91 94 103 121 132 138 147 175 186 185 185 193 195 202 203 205 207 196 195 205 217 218 227 229 216 199 204 193 256 232 242 254 266 257 257 177 189 304 315 325 323 313
99 93 97 94 88 93 118 149 195 196 186 199 204 189 201 208 210 208 196 197 207 227 220 229 236 227 215 133 144 261 268 261 252 254 248 222 190 188 218 247 268 276 278
91 87 90 101 108 103 73 148 216 204 185 188 193 190 200 206 214 218 198 194 206 211 219 226 223 198 160 140 128 305 276 272 269 270 261 257 245 167 260 249 240 252 261
78 79 65 85 97 101 118 233 246 189 189 192 199 201 203 208 199 203 200 196 206 209 215 221 224 193 167 159 172 279 255 262 262 257 245 224 178 278 288 277 269 266 279
67 69 56 51 68 95 90 95 44 51 182 206 216 214 208 213 207 212 204 194 209 220 224 216 214 194 168 180 189 222 253 250 251 251 264 216 179 298 309 288 275 270 276
62 64 66 59 56 51 45 63 71 54 22 7 335 284 223 225 221 216 216 211 216 226 235 229 213 197 176 181 181 193 244 255 257 242 183 143 171 267 285 273 272 264 268
58 59 62 60 59 56 57 41 40 22 9 14 12 4 329 247 223 212 202 214 230 238 235 235 218 197 183 178 186 190 219 263 279 274 234 156 170 213 246 260 262 258 273
50 55 62 68 70 72 70 55 35 17 22 21 7 347 308 280 255 212 210 216 232 241 236 228 227 215 187 181 192 199 214 237 262 272 282 176 234 251 257 259 264 269 281
55 52 71 69 66 67 75 55 27 36 13 358 339 318 284 267 279 257 231 220 224 232 230 219 222 215 195 171 189 206 223 233 246 264 289 272 263 269 261 253 260 265 257
57 8 63 69 52 35 16 6 15 26 359 327 306 277 264 259 250 249 242 234 239 236 233 229 230 213 182 170 183 209 217 230 238 247 241 243 252 262 270 266 250 244 253
317 282 248 214 172 132 355 346 1 360 316 290 283 272 255 245 247 229 269 254 241 249 250 266 268 258 232 53 101 244 224 235 267 261 242 247 252 259 253 254 254 242 236
286 263 270 283 278 261 269 285 263 270 282 275 279 284 278 257 231 206 215 5 211 172 177 187 194 199 218 204 195 218 269 265 225 188 243 252 250 253 252 251 248 255 280